Погода в Майами-Бич

США     25°49′04″N   80°07′56″W
темп.,
°C
ветер,
м/с
пор.,
м/с
влажн.,
%
обл.,
%
осадки,
мм/ч
давл.,
гПа
погр.,
м
31 июля, сб
сб3123:00+30ю336532 0.1 1019836
02:00+30ю34655 0.1 1018951
05:00+29ю336724 0.0 1017849
08:00+29ююз336710 0.1 1018745
11:00+31ююв335823 0.1 10191358
14:00+31юв655955 0.1 1018890
17:00+32юв765928 0.0 1017993
20:00+31ююв546122 0.1 10181000
1 августа, вс
вс123:00+31ююв235761 0.9 10191145
02:00+30ююв336069 0.9 1018920
05:00+29ююв22655 0.0 1017792
08:00+30ююв236613 0.0 1018924
11:00+31юв32598 0.1 10191245
14:00+32юв645910 0.1 10181372
17:00+32юв76578 0.0 1017922
20:00+30ююз2362100 0.7 1018819
2 августа, пн
пн223:00+31ююв5564100 0.3 1018989
02:00+30ююв4465100 0.3 10181068
05:00+30ююв336764 0.2 1017848
08:00+30ююв336992 0.9 1018753
11:00+31ююв5562100 1.6 10181145
14:00+32ююв655697 3.3 10171382
17:00+31юв645792 0.1 10161104
20:00+30ююв336789 0.1 1017962
3 августа, вт
вт323:00+30юв3468100 2.1 1017591
02:00+30ю5669100 2.1 1016995
05:00+30ююв4569100 0.3 1015831
08:00+30ю566793 0.3 1016989
11:00+31ю666259 1.8 10171264
14:00+31юв6658100 7.0 1016961
17:00+30юв91067100 5.6 10141015
20:00+26с8780100 15.7 1017353
4 августа, ср
ср423:00+28юв3365100 0.1 1017237
02:00+28юв577460 0.1 1015650
05:00+29юв577143 1.7 1015736
08:00+29ююв577199 5.4 1016761
11:00+30ююв5665100 2.8 10171152
14:00+31ююв5557100 4.3 10171294
17:00+32юв655630 0.0 10161287
20:00+31юв5460100 0.1 10161085